Regional Weather Roundup
Issued by NWS

Home | Current Version | Previous Version | Text Only | Print | Product List | Glossary Off
Versions: 1 2 3 4 5 6 7 8 9 10 11 12 13 14 15 16 17 18 19 20 21 22 23 24 25 26 27 28 29 30 31 32 33 34 35 36 37 38 39 40 41 42 43 44 45 46 47 48 49 50

000
ASUS43 KDMX 231807
RWRIA

WEATHER ROUNDUP FOR IOWA
NATIONAL WEATHER SERVICE DES MOINES IA
100 PM CDT WED JUL 23 2014

NOTE: "FAIR" INDICATES FEW OR NO CLOUDS BELOW 12,000 FEET WITH NO
SIGNIFICANT WEATHER AND/OR OBSTRUCTIONS TO VISIBILITY.

* - THESE STATIONS ARE NOT NWS STATIONS...THUS NOT UNDER NWS
QUALITY CONTROL.  THEY ALSO DO NOT REPORT WEATHER SUCH
AS PRECIPITATION OR FOG.

IAZ001>003-012>014-020>022-031>034-043>046-231900-
   NORTHWEST IOWA

CITY           SKY/WX    TMP DP  RH WIND       PRES   REMARKS
CARROLL *      SUNNY     77  64  65 NE5       30.23F
CHEROKEE *     MOSUNNY   77  56  47 CALM      30.26S
DENISON *      SUNNY     79  59  50 VRB7      30.22F HX  80
LE MARS *      SUNNY     77  57  50 VRB6      30.26F
ORANGE CITY *  SUNNY     79  54  41 NE3       30.27F
SHELDON *      MOSUNNY   77  59  53 CALM      30.27S
SIOUX CITY     SUNNY     81  56  42 NE7       30.24F HX  81
6HR MIN TEMP:  64; 6HR MAX TEMP:  81;

SPENCER        MOSUNNY   78  57  48 MISG      30.26S
6HR MIN TEMP:  59; 6HR MAX TEMP:  78;

STORM LAKE *   SUNNY     75  59  57 VRB6      30.27S
$$

IAZ055>058-069>071-079>083-090>094-231900-
   SOUTHWEST IOWA

CITY           SKY/WX    TMP DP  RH WIND       PRES   REMARKS
ATLANTIC *     SUNNY     79  61  53 NE9       30.21F HX  80
AUDUBON *      MOSUNNY   82  68  61 N6        30.24F HX  85
CLARINDA *     SUNNY     82  64  54 NE9G15    30.21F HX  84
COUNCIL BLFS * SUNNY     81  61  50 NE9       30.21F HX  81
CRESTON *      MOSUNNY   79  64  61 E9        30.23F HX  81
HARLAN  *      SUNNY     79  64  61 NE6G15    30.25F HX  81
LAMONI         MOSUNNY   80  63  55 NE14      30.20F HX  81
6HR MIN TEMP:  66; 6HR MAX TEMP:  81;

RED OAK *      SUNNY     81  61  50 NE8G15    30.21F HX  81
SHENANDOAH *   SUNNY     81  64  57 VRB7G14   30.21F HX  82
$$

IAZ047>049-059>061-072>074-084-231900-
   CENTRAL IOWA

CITY           SKY/WX    TMP DP  RH WIND       PRES   REMARKS
AMES           SUNNY     80  60  50 E8        30.21F HX  81
6HR MIN TEMP:  63; 6HR MAX TEMP:  80;

ANKENY *       MOSUNNY   81  61  50 E13       30.21F HX  81
CHARITON *     MOSUNNY   79  64  61 NE10      30.21S HX  81
DES MOINES     PTSUNNY   83  59  44 NE8       30.21S HX  83
6HR MIN TEMP:  68; 6HR MAX TEMP:  83;

GRINNELL*      MOSUNNY   77  57  50 NE8       30.22F
KNOXVILLE *    MOSUNNY   79  59  50 NE10G18   30.20S HX  80
MARSHALLTOWN   MOSUNNY   80  57  45 NE13      30.22S HX  80
6HR MIN TEMP:  63; 6HR MAX TEMP:  80;

PELLA *        SUNNY     81  58  45 NE3       30.22S HX  81
PERRY *        CLOUDY    77  63  61 E3        30.23S
$$

IAZ004>006-015-016-023>025-035-036-231900-
   NORTH CENTRAL IOWA

CITY           SKY/WX    TMP DP  RH WIND       PRES   REMARKS
ALGONA *       PTSUNNY   79  59  50 E7        30.25F HX  80
CLARION *      MOSUNNY   79  57  47 NE7       30.25S HX  80
ESTHERVILLE    MOSUNNY   77  60  55 MISG      30.26S
6HR MIN TEMP:  58; 6HR MAX TEMP:  77;

FORT DODGE *   MOSUNNY   79  61  53 E8        30.25S HX  80
MASON CITY     PTSUNNY   77  57  50 E6        30.26F
6HR MIN TEMP:  58; 6HR MAX TEMP:  78;

FOREST CITY *  PTSUNNY   75  54  46 E6        30.26S
IOWA FALLS *     N/A     77  54  44 NE8       30.24F
$$

IAZ007>011-017>019-026>030-037>042-050>054-066-231900-
   NORTHEAST IOWA

CITY           SKY/WX    TMP DP  RH WIND       PRES   REMARKS
CEDAR RAPIDS   SUNNY     78  54  43 NE13      30.20S
6HR MIN TEMP:  68; 6HR MAX TEMP:  78;

CHARLES CITY * SUNNY     75  55  50 NE6G12    30.25F
CLINTON *      SUNNY     75  57  53 NE15      30.20F
DECORAH *      MOSUNNY   75  55  50 VRB7      30.23S
DUBUQUE        MOSUNNY   75  56  51 E8        30.20F
6HR MIN TEMP:  64; 6HR MAX TEMP:  75;

MONTICELLO *   MOSUNNY   77  57  50 E9G15     30.20R
OELWEIN *      MOSUNNY   77  54  44 NE6G13    30.23F
WATERLOO       MOSUNNY   78  54  43 NE6       30.22S
6HR MIN TEMP:  64; 6HR MAX TEMP:  79;

$$

IAZ064-065-067-068-078-231900-
   EAST CENTRAL IOWA

CITY           SKY/WX    TMP DP  RH WIND       PRES   REMARKS
DAVENPORT      SUNNY     77  57  50 NE12      30.18F
6HR MIN TEMP:  67; 6HR MAX TEMP:  77;

IOWA CITY      SUNNY     78  58  49 NE13      30.20S
6HR MIN TEMP:  68; 6HR MAX TEMP:  78;

MT. PLEASANT * MOSUNNY   78  62  56 NE12      30.17F HX  80
MUSCATINE *    PTSUNNY   77  59  53 NE14      30.17F
QUAD CITIES    SUNNY     79  55  43 NE13G22   30.17R
6HR MIN TEMP:  70; 6HR MAX TEMP:  79;

$$

IAZ062-063-075>077-085>089-095>099-231900-
   SOUTHEAST IOWA

CITY           SKY/WX    TMP DP  RH WIND       PRES   REMARKS
BURLINGTON     MOSUNNY   78  62  57 NE13      30.16S HX  80
6HR MIN TEMP:  71; 6HR MAX TEMP:  78;

FAIRFIELD *    MOSUNNY   79  61  53 N12       30.18S HX  80
FORT MADISON * MOSUNNY   79  68  69 NE9       30.17R HX  81
KEOKUK *       MOSUNNY   79  64  61 NE13      30.15S HX  81
OSKALOOSA *      N/A     79  59  49 N10       30.20F HX  80
CENTERVILLE *  SUNNY     81  63  54 NE8       30.21S HX  82
OTTUMWA        SUNNY     80  58  46 NE10      30.18F HX  80
6HR MIN TEMP:  67; 6HR MAX TEMP:  80;

WASHINGTON *   MOSUNNY   79  61  53 NE10G17   30.19R HX  80
$$

ABBREVIATIONS USED IN REMARKS
   TC - TEMPERATURES IN CELSIUS
  WCI - WIND CHILL INDEX
   HX - HEAT INDEX
  VSB - VISIBILITY
$$




USA.gov is the U.S. government's official web portal to all federal, state and local government web resources and services.